Temp
-6 -7 -7 -7 -6 -5 -6 -7 -6 -6 -6 -7 -6 -7 -7 -6 -6 -6 -6 -6 -6 -6 -6 -6 -6 -6 -6 -6 -6 -6 -6 -6 -6 -6 -7 -7 -7 -7 -7 -7 -7 -7 -7 -7 -7 -7 -7 -7 -7
-7 -6 -7 -7 -6 -6 -7 -8 -7 -6 -6 -6 -7 -7 -6 -6 -6 -6 -7 -6 -7 -7 -6 -6 -6 -6 -6 -6 -6 -6 -6 -6 -6 -7 -7 -7 -7 -7 -7 -7 -7 -7 -7 -7 -7 -7 -7 -7 -7
-7 -6 -7 -7 -7 -7 -7 -7 -6 -5 -5 -5 -5 -5 -6 -6 -7 -6 -7 -6 -7 -6 -7 -6 -6 -6 -6 -7 -6 -6 -6 -6 -7 -7 -7 -7 -7 -7 -7 -7 -7 -7 -7 -7 -7 -7 -7 -7 -7
-6 -6 -6 -6 -8 -7 -7 -6 -7 -6 -5 -6 -6 -6 -6 -6 -6 -7 -7 -7 -7 -6 -7 -7 -6 -7 -6 -6 -6 -6 -7 -7 -7 -8 -8 -8 -7 -7 -7 -7 -8 -7 -7 -7 -7 -7 -7 -7 -7
-7 -6 -6 -6 -8 -7 -7 -7 -7 -7 -6 -6 -7 -7 -6 -6 -7 -7 -6 -7 -7 -7 -7 -7 -7 -7 -7 -7 -7 -7 -7 -7 -7 -7 -7 -8 -8 -8 -8 -8 -8 -8 -8 -7 -7 -7 -7 -7 -7
-6 -6 -6 -6 -7 -8 -8 -8 -7 -6 -5 -6 -6 -7 -7 -6 -6 -7 -7 -7 -7 -7 -7 -7 -7 -7 -7 -7 -7 -7 -7 -7 -8 -8 -7 -7 -7 -8 -8 -8 -8 -8 -8 -8 -8 -7 -7 -7 -7
-6 -6 -6 -7 -6 -7 -6 -6 -6 -5 -6 -6 -6 -7 -7 -7 -7 -7 -7 -7 -8 -7 -7 -7 -7 -7 -7 -8 -8 -8 -8 -8 -8 -8 -8 -8 -8 -8 -8 -8 -8 -8 -8 -8 -7 -7 -7 -7 -7
-6 -6 -6 -7 -6 -6 -7 -7 -7 -6 -6 -6 -7 -6 -7 -7 -7 -7 -7 -7 -7 -7 -7 -8 -8 -8 -8 -8 -8 -8 -8 -8 -8 -8 -8 -8 -8 -8 -8 -8 -8 -8 -8 -8 -8 -7 -7 -7 -7
-6 -6 -6 -6 -6 -6 -8 -7 -6 -5 -6 -7 -7 -7 -7 -7 -7 -7 -7 -8 -7 -8 -8 -8 -8 -8 -8 -8 -8 -8 -8 -8 -8 -8 -8 -8 -8 -8 -8 -8 -8 -8 -8 -8 -8 -7 -7 -7 -7
-7 -6 -6 -6 -6 -7 -7 -8 -6 -6 -5 -6 -7 -6 -7 -8 -7 -7 -7 -8 -7 -8 -8 -8 -8 -8 -8 -8 -8 -8 -8 -8 -8 -8 -8 -8 -8 -8 -8 -8 -8 -9 -9 -8 -7 -7 -8 -7 -7
-7 -6 -6 -6 -6 -6 -7 -8 -7 -6 -6 -6 -7 -7 -7 -7 -7 -7 -7 -7 -8 -8 -8 -8 -8 -8 -8 -9 -8 -8 -8 -8 -8 -8 -8 -8 -8 -8 -8 -9 -9 -8 -8 -8 -7 -7 -7 -7 -8
-5 -5 -6 -7 -6 -7 -7 -8 -6 -6 -7 -6 -7 -7 -7 -7 -7 -8 -8 -8 -8 -9 -8 -8 -8 -8 -9 -9 -8 -8 -8 -8 -9 -9 -8 -9 -8 -8 -8 -8 -8 -8 -8 -8 -8 -8 -8 -8 -8
-7 -6 -8 -6 -7 -6 -6 -5 -6 -7 -6 -7 -7 -7 -7 -7 -7 -7 -8 -7 -8 -8 -8 -8 -7 -8 -8 -8 -8 -8 -8 -8 -8 -9 -9 -9 -9 -8 -9 -9 -8 -8 -7 -7 -8 -8 -7 -8 -8
-7 -6 -6 -6 -6 -6 -7 -6 -6 -5 -5 -6 -7 -7 -7 -7 -7 -6 -7 -8 -7 -8 -8 -8 -7 -8 -8 -8 -8 -8 -8 -8 -8 -9 -9 -8 -9 -9 -8 -8 -8 -8 -7 -7 -8 -8 -8 -8 -8
-4 -5 -7 -6 -6 -7 -6 -6 -6 -6 -6 -7 -6 -7 -7 -6 -6 -6 -7 -7 -8 -7 -7 -8 -8 -7 -7 -7 -8 -8 -8 -8 -8 -8 -9 -9 -9 -8 -8 -8 -8 -8 -8 -7 -8 -8 -8 -8 -8
-6 -6 -7 -7 -6 -6 -6 -6 -6 -6 -6 -6 -6 -6 -7 -6 -6 -6 -6 -7 -7 -7 -7 -7 -7 -7 -7 -8 -7 -8 -8 -8 -8 -9 -9 -8 -8 -8 -8 -8 -8 -8 -8 -7 -7 -7 -7 -8 -8
-6 -7 -7 -7 -7 -7 -6 -7 -6 -7 -5 -5 -6 -6 -6 -5 -6 -6 -6 -6 -7 -6 -6 -7 -7 -7 -7 -8 -8 -8 -9 -8 -8 -8 -8 -8 -8 -8 -8 -8 -8 -7 -7 -8 -8 -8 -8 -7 -8
-7 -7 -7 -7 -7 -6 -7 -7 -7 -7 -7 -6 -6 -6 -7 -6 -5 -6 -6 -6 -6 -6 -7 -7 -7 -7 -7 -7 -7 -7 -8 -8 -8 -7 -8 -8 -7 -7 -8 -7 -8 -7 -7 -8 -8 -7 -6 -6 -7
-8 -8 -8 -8 -8 -7 -7 -7 -7 -7 -7 -5 -5 -6 -6 -7 -6 -6 -5 -6 -6 -6 -6 -6 -6 -7 -7 -7 -7 -8 -8 -8 -8 -8 -8 -7 -7 -7 -8 -9 -8 -8 -7 -9 -8 -7 -7 -7 -7
-9 -9 -7 -7 -8 -6 -7 -7 -6 -6 -7 -6 -5 -6 -6 -6 -6 -6 -6 -6 -6 -6 -6 -6 -6 -6 -7 -7 -7 -7 -7 -7 -8 -8 -8 -8 -7 -7 -8 -8 -9 -8 -8 -8 -9 -8 -8 -7 -7
-9 -10 -10 -8 -8 -7 -8 -7 -7 -6 -6 -6 -5 -6 -6 -6 -6 -6 -6 -6 -5 -5 -5 -6 -6 -6 -6 -6 -7 -7 -7 -7 -7 -8 -7 -8 -7 -7 -7 -9 -9 -9 -9 -8 -8 -8 -8 -7 -7
-10 -10 -10 -9 -9 -7 -8 -7 -7 -7 -7 -6 -6 -5 -5 -6 -6 -6 -6 -6 -6 -5 -5 -5 -6 -6 -6 -7 -6 -7 -7 -7 -7 -7 -7 -7 -7 -7 -7 -7 -8 -8 -8 -8 -8 -8 -8 -7 -7
-10 -10 -9 -10 -9 -8 -8 -7 -7 -6 -5 -5 -6 -5 -6 -6 -6 -6 -6 -6 -6 -5 -5 -5 -5 -6 -6 -6 -6 -7 -7 -7 -7 -7 -7 -7 -7 -7 -6 -7 -7 -7 -8 -8 -7 -7 -7 -7 -7
-10 -9 -9 -10 -10 -9 -8 -7 -6 -6 -5 -6 -6 -5 -6 -7 -5 -5 -5 -6 -5 -6 -5 -5 -5 -5 -6 -5 -6 -7 -7 -7 -7 -7 -7 -7 -6 -7 -6 -6 -6 -7 -7 -7 -7 -7 -7 -6 -6
-9 -9 -10 -10 -10 -10 -8 -7 -6 -6 -5 -6 -6 -6 -6 -6 -6 -5 -5 -5 -6 -5 -5 -5 -5 -5 -5 -5 -6 -6 -7 -7 -7 -7 -7 -7 -7 -7 -7 -7 -7 -7 -7 -7 -7 -7 -7 -7 -6
-9 -10 -11 -9 -10 -9 -9 -8 -8 -6 -6 -6 -5 -6 -7 -6 -6 -6 -4 -6 -5 -6 -6 -5 -4 -4 -5 -5 -5 -6 -6 -6 -7 -7 -7 -7 -7 -7 -7 -7 -8 -7 -7 -7 -7 -6 -7 -6 -7
-10 -11 -11 -11 -10 -9 -9 -8 -8 -7 -6 -6 -6 -7 -6 -6 -5 -6 -6 -6 -5 -5 -6 -5 -5 -4 -5 -5 -5 -5 -6 -6 -6 -6 -6 -6 -7 -7 -7 -7 -7 -7 -7 -7 -7 -7 -7 -7 -6
-10 -10 -10 -11 -10 -10 -9 -8 -8 -9 -7 -6 -6 -6 -6 -6 -5 -7 -7 -6 -5 -5 -5 -5 -5 -5 -4 -5 -5 -5 -5 -5 -6 -6 -6 -6 -6 -6 -7 -7 -7 -7 -7 -7 -7 -6 -7 -6 -6
-11 -11 -10 -10 -10 -10 -9 -9 -8 -7 -8 -7 -7 -7 -7 -6 -5 -6 -7 -5 -5 -5 -6 -5 -5 -5 -5 -4 -5 -5 -5 -5 -5 -5 -6 -6 -6 -6 -6 -6 -6 -7 -7 -6 -6 -6 -7 -6 -6
-10 -11 -10 -10 -10 -9 -9 -9 -9 -7 -7 -7 -7 -7 -8 -6 -6 -7 -6 -6 -5 -5 -5 -6 -5 -5 -5 -5 -5 -5 -5 -5 -5 -5 -6 -6 -6 -6 -6 -6 -6 -6 -6 -6 -6 -6 -6 -6 -6
Height
5884 5882 5880 5880 5883 5878 5877 5874 5874 5872 5871 5873 5873 5872 5874 5875 5875 5878 5878 5879 5879 5879 5879 5878 5879 5882 5883 5884 5883 5886 5890 5893 5896 5899 5901 5903 5904 5905 5907 5908 5910 5911 5913 5914 5914 5915 5915 5916 5917
5885 5882 5883 5881 5881 5878 5878 5876 5874 5873 5874 5875 5874 5874 5876 5876 5875 5877 5879 5879 5878 5879 5879 5880 5881 5882 5885 5887 5889 5887 5890 5896 5897 5900 5902 5904 5905 5906 5909 5911 5912 5912 5914 5914 5916 5916 5916 5917 5919
5882 5881 5881 5880 5881 5879 5879 5876 5873 5874 5878 5876 5876 5875 5877 5877 5878 5878 5878 5878 5880 5882 5882 5881 5883 5884 5886 5889 5891 5892 5895 5897 5898 5901 5903 5905 5907 5908 5911 5913 5914 5914 5915 5916 5917 5917 5918 5919 5920
5883 5881 5876 5879 5881 5882 5878 5878 5877 5874 5875 5878 5876 5877 5878 5877 5878 5879 5878 5878 5881 5882 5882 5882 5884 5885 5887 5891 5893 5893 5895 5897 5899 5901 5904 5906 5908 5910 5913 5914 5915 5915 5917 5917 5918 5918 5919 5921 5921
5882 5884 5879 5880 5881 5881 5879 5879 5879 5879 5878 5880 5880 5878 5879 5876 5877 5878 5878 5879 5880 5881 5883 5882 5884 5887 5889 5893 5893 5894 5896 5898 5900 5901 5905 5908 5911 5913 5914 5915 5916 5918 5919 5920 5920 5921 5921 5922 5922
5884 5881 5880 5880 5883 5882 5883 5882 5880 5880 5881 5881 5881 5880 5879 5877 5878 5880 5879 5881 5884 5883 5881 5882 5885 5888 5890 5892 5893 5897 5898 5901 5900 5901 5904 5908 5910 5914 5915 5916 5918 5920 5921 5922 5922 5923 5923 5924 5925
5879 5883 5880 5880 5883 5882 5883 5883 5882 5880 5879 5881 5881 5880 5879 5878 5879 5881 5881 5883 5886 5884 5883 5883 5886 5890 5892 5892 5893 5895 5898 5899 5898 5899 5904 5907 5911 5914 5916 5918 5920 5922 5923 5924 5925 5925 5925 5927 5927
5883 5883 5883 5882 5883 5882 5883 5880 5881 5882 5882 5884 5882 5880 5881 5881 5882 5882 5876 5880 5883 5885 5884 5885 5888 5890 5891 5893 5894 5896 5896 5897 5899 5904 5907 5910 5913 5916 5918 5920 5921 5923 5925 5926 5927 5928 5928 5929 5929
5876 5882 5884 5884 5883 5883 5886 5883 5883 5883 5884 5883 5883 5882 5880 5879 5882 5883 5882 5883 5884 5887 5888 5889 5891 5894 5894 5895 5897 5897 5896 5897 5901 5905 5910 5912 5913 5917 5919 5921 5923 5924 5926 5928 5929 5930 5930 5930 5931
5882 5879 5882 5881 5883 5882 5884 5884 5882 5885 5883 5884 5885 5885 5884 5883 5884 5882 5886 5887 5888 5888 5889 5890 5891 5893 5894 5896 5897 5897 5896 5901 5906 5908 5912 5914 5915 5917 5918 5921 5925 5926 5927 5929 5931 5931 5932 5934 5935
5881 5883 5883 5881 5880 5884 5884 5886 5885 5886 5886 5886 5888 5886 5885 5886 5886 5886 5889 5888 5887 5889 5891 5891 5892 5893 5893 5895 5895 5895 5896 5907 5909 5912 5911 5913 5918 5920 5919 5922 5925 5928 5929 5930 5933 5935 5935 5935 5937
5879 5884 5884 5884 5886 5883 5888 5888 5887 5887 5887 5889 5889 5887 5887 5888 5888 5887 5888 5890 5892 5893 5895 5896 5893 5892 5893 5896 5896 5895 5898 5908 5912 5914 5915 5920 5923 5922 5921 5923 5925 5927 5929 5931 5934 5936 5936 5937 5939
5879 5883 5886 5886 5885 5881 5886 5888 5888 5890 5889 5890 5890 5890 5888 5891 5891 5891 5890 5890 5897 5898 5899 5898 5895 5894 5898 5900 5900 5901 5904 5908 5913 5915 5915 5921 5921 5921 5920 5922 5925 5929 5931 5931 5934 5938 5937 5939 5940
5888 5885 5884 5888 5888 5888 5886 5891 5892 5888 5891 5891 5891 5892 5892 5894 5893 5894 5893 5892 5896 5898 5900 5902 5897 5900 5904 5901 5902 5906 5909 5911 5913 5913 5914 5918 5920 5922 5921 5922 5926 5929 5932 5934 5935 5938 5939 5939 5941
5888 5889 5883 5883 5888 5891 5893 5892 5892 5890 5892 5891 5892 5893 5894 5895 5896 5895 5897 5898 5898 5901 5902 5902 5898 5902 5904 5905 5904 5907 5910 5913 5913 5916 5916 5917 5920 5923 5923 5927 5930 5931 5935 5936 5936 5935 5938 5942 5943
5872 5882 5883 5884 5887 5889 5892 5891 5889 5894 5893 5892 5893 5894 5896 5898 5898 5897 5898 5900 5900 5902 5903 5903 5903 5903 5908 5909 5910 5909 5911 5915 5919 5916 5919 5923 5924 5926 5930 5933 5932 5933 5936 5937 5939 5938 5938 5940 5941
5879 5880 5885 5887 5886 5887 5887 5888 5891 5894 5892 5894 5893 5896 5897 5898 5899 5900 5900 5902 5902 5903 5905 5907 5906 5907 5911 5910 5910 5911 5914 5917 5917 5918 5922 5924 5925 5926 5931 5935 5938 5935 5935 5939 5941 5939 5936 5938 5939
5880 5879 5883 5885 5884 5883 5887 5888 5889 5890 5891 5892 5892 5895 5897 5898 5900 5902 5903 5904 5906 5907 5907 5909 5910 5912 5913 5915 5916 5918 5917 5916 5916 5919 5921 5922 5924 5930 5935 5938 5938 5935 5938 5942 5944 5943 5941 5941 5943
5881 5880 5881 5883 5883 5886 5885 5888 5887 5889 5889 5890 5894 5894 5897 5897 5899 5902 5904 5905 5908 5909 5910 5912 5913 5915 5916 5918 5918 5918 5917 5917 5920 5924 5922 5924 5929 5935 5938 5941 5942 5941 5940 5947 5948 5926 5944 5942 5945
5880 5876 5878 5879 5880 5885 5886 5888 5889 5888 5888 5890 5892 5893 5896 5897 5899 5901 5904 5907 5908 5910 5911 5913 5915 5916 5918 5919 5920 5919 5919 5921 5924 5928 5926 5927 5932 5934 5939 5940 5940 5943 5945 5946 5947 5944 5939 5943 5947
5879 5876 5873 5877 5878 5883 5884 5886 5888 5887 5889 5891 5891 5894 5892 5895 5898 5901 5904 5907 5910 5911 5911 5914 5916 5918 5920 5923 5924 5924 5925 5928 5927 5929 5928 5930 5934 5938 5940 5941 5945 5947 5944 5944 5944 5941 5946 5944 5949
5877 5876 5875 5875 5876 5880 5883 5886 5885 5889 5890 5890 5892 5893 5892 5893 5897 5900 5902 5907 5910 5911 5912 5914 5917 5919 5923 5925 5927 5928 5928 5931 5932 5933 5931 5931 5933 5938 5939 5945 5949 5948 5949 5948 5946 5943 5941 5943 5950
5874 5874 5874 5873 5875 5878 5882 5883 5884 5882 5885 5883 5885 5891 5893 5893 5895 5898 5902 5906 5909 5912 5913 5915 5918 5921 5924 5926 5928 5929 5930 5931 5932 5933 5934 5935 5933 5934 5940 5945 5947 5947 5948 5950 5945 5943 5943 5946 5949
5869 5871 5871 5873 5874 5875 5876 5877 5877 5875 5875 5875 5877 5885 5891 5892 5897 5897 5901 5904 5908 5910 5913 5915 5919 5921 5923 5927 5929 5930 5930 5932 5932 5932 5934 5935 5935 5935 5937 5941 5945 5946 5946 5944 5945 5944 5943 5945 5948
5866 5867 5869 5870 5871 5870 5871 5874 5874 5873 5873 5873 5877 5882 5886 5890 5894 5896 5899 5902 5906 5909 5911 5915 5918 5921 5924 5927 5929 5931 5931 5931 5932 5933 5935 5937 5937 5937 5938 5939 5941 5942 5942 5942 5942 5943 5943 5944 5944
5862 5863 5864 5863 5865 5865 5866 5868 5869 5868 5869 5872 5873 5878 5881 5886 5891 5895 5896 5899 5904 5908 5910 5913 5916 5920 5922 5926 5929 5931 5931 5933 5933 5933 5935 5939 5939 5939 5941 5942 5942 5940 5941 5942 5941 5943 5947 5947 5946
5860 5861 5859 5858 5858 5861 5861 5862 5862 5864 5867 5867 5871 5876 5876 5881 5888 5890 5893 5898 5901 5906 5908 5912 5915 5918 5920 5922 5926 5928 5931 5932 5933 5934 5937 5939 5937 5936 5939 5940 5941 5942 5941 5942 5943 5943 5945 5944 5943
5856 5856 5855 5854 5854 5857 5858 5859 5858 5861 5863 5866 5867 5869 5868 5873 5883 5886 5889 5893 5898 5902 5906 5908 5913 5915 5919 5921 5923 5925 5928 5930 5932 5933 5936 5937 5938 5939 5940 5942 5942 5944 5943 5943 5943 5943 5944 5946 5946
5852 5851 5852 5852 5851 5852 5854 5853 5854 5856 5859 5861 5862 5867 5868 5872 5881 5882 5882 5888 5894 5897 5904 5906 5909 5913 5915 5918 5920 5922 5926 5928 5930 5930 5933 5934 5936 5938 5940 5940 5940 5941 5943 5943 5944 5944 5944 5944 5944
5849 5848 5848 5847 5850 5850 5850 5852 5849 5850 5852 5854 5858 5861 5867 5867 5873 5879 5881 5887 5892 5896 5899 5903 5907 5910 5912 5914 5916 5919 5922 5926 5928 5930 5932 5933 5935 5938 5940 5941 5941 5943 5943 5942 5942 5942 5942 5943 5944
Wind_Speed
11 12 5 11 5 10 10 7 14 8 9 10 10 6 5 6 2 3 3 3 1 0 3 4 8 8 14 9 25 26 25 24 22 19 17 15 13 12 11 11 12 11 13 13 14 13 13 15 13
8 5 9 3 4 12 8 6 10 5 10 12 11 8 3 6 2 4 3 3 3 5 3 7 9 8 11 12 15 12 20 19 15 17 15 14 12 12 9 11 12 13 15 16 14 14 18 14 12
7 10 14 13 5 9 9 5 3 5 4 6 8 6 5 8 4 6 3 5 9 9 13 10 9 10 9 9 10 9 8 9 14 16 15 14 12 13 13 12 12 15 16 16 15 16 15 15 17
7 8 14 17 10 10 8 9 8 9 11 8 7 7 4 4 5 6 4 7 7 11 13 14 9 11 9 8 12 13 14 16 17 16 13 12 12 12 13 13 14 16 14 16 17 17 15 16 16
7 8 10 13 8 11 12 11 11 5 12 8 8 4 5 2 5 5 5 8 13 12 10 12 12 13 13 13 14 14 13 14 14 14 12 10 10 11 12 14 14 12 13 15 17 15 16 16 16
13 11 6 11 5 7 8 7 4 7 5 6 8 7 4 3 3 5 4 8 8 11 12 11 10 11 11 12 11 11 12 13 13 13 12 11 11 11 13 13 12 12 11 17 18 16 16 16 17
10 12 22 7 3 7 9 11 11 6 9 6 6 12 6 4 3 5 7 5 7 9 13 14 12 12 11 11 11 10 10 10 11 13 13 11 11 12 12 11 12 13 16 23 17 15 17 18 18
10 7 7 7 6 10 13 12 12 7 7 7 9 9 7 3 4 7 5 11 8 10 15 15 15 14 13 12 11 11 11 10 10 10 9 11 12 13 14 13 13 12 15 16 16 17 18 17 16
10 14 11 9 10 7 6 9 11 11 8 2 7 9 9 6 4 6 6 7 11 8 11 15 15 14 13 12 11 10 10 12 11 10 9 13 14 15 15 16 13 10 13 15 18 18 17 16 15
12 5 11 14 16 11 7 7 10 8 10 12 7 8 10 3 5 3 6 7 11 7 7 13 16 12 12 10 10 10 10 11 12 12 12 13 15 16 17 18 13 14 24 19 18 18 18 15 14
11 6 11 5 19 6 13 6 8 3 7 9 5 8 10 5 4 7 11 7 7 5 5 17 12 12 11 10 12 12 12 12 12 12 12 17 18 19 19 20 19 22 18 17 17 16 16 17 14
5 3 3 4 3 7 15 6 8 1 7 4 7 5 8 5 6 6 7 6 8 6 10 14 11 11 10 13 15 14 13 13 16 14 16 15 16 19 21 20 21 21 18 19 18 17 17 17 13
14 9 5 4 3 17 4 4 5 1 4 4 3 3 8 5 6 8 9 4 10 12 13 14 8 6 4 8 9 13 11 15 17 17 15 16 21 22 24 22 21 20 18 22 20 16 15 15 13
5 1 3 2 3 6 12 7 6 2 2 4 1 5 6 7 6 10 10 8 10 12 12 11 9 9 9 16 13 13 12 14 15 15 15 17 18 19 22 23 22 21 20 20 21 16 14 14 13
1 4 5 6 5 3 5 11 9 1 2 2 2 1 7 7 8 10 10 10 7 10 12 11 6 9 13 12 12 14 15 17 16 17 17 15 18 19 20 20 20 21 19 20 20 20 16 10 7
8 3 3 6 4 4 9 6 11 7 6 10 6 3 4 10 7 8 6 9 9 8 10 10 10 8 12 11 10 12 11 13 18 18 20 20 22 22 17 15 19 18 18 18 18 18 15 12 8
9 4 6 13 5 2 4 15 18 15 4 6 9 6 5 7 8 8 6 11 7 7 10 11 10 9 12 10 7 9 11 14 16 19 19 19 20 19 18 16 17 19 19 18 17 17 17 12 8
13 8 13 13 18 7 2 12 9 4 9 8 8 8 7 6 9 10 8 9 7 9 10 11 11 10 11 10 9 13 10 14 11 16 17 18 19 21 15 16 18 20 18 15 16 14 8 3 1
11 19 18 17 10 2 4 2 10 16 15 11 11 12 11 10 10 9 10 8 7 8 10 10 10 10 11 10 8 9 11 13 14 15 17 17 15 15 17 15 13 17 16 9 15 15 7 5 2
13 23 21 20 14 7 8 10 11 15 17 21 12 15 13 12 10 10 10 8 8 11 9 10 8 8 10 9 10 11 10 14 15 11 17 10 12 4 6 11 10 12 8 16 16 15 12 6 5
13 18 23 24 26 13 8 10 6 9 15 24 17 16 15 13 12 11 13 12 10 11 11 11 10 8 8 8 9 8 8 10 11 14 17 16 8 4 6 9 11 9 10 10 10 9 3 9 8
7 14 21 25 23 19 11 15 10 5 14 24 23 19 18 17 14 14 11 13 11 10 11 10 9 7 7 7 9 10 9 10 11 10 12 10 9 8 6 9 6 8 8 10 6 1 4 7 5
18 12 20 24 23 16 16 16 13 17 13 22 31 30 22 15 18 15 14 12 12 12 12 11 10 9 6 5 7 10 8 8 9 11 10 11 10 7 8 9 9 8 8 7 2 2 1 2 4
20 20 21 15 13 18 16 17 14 17 12 8 29 33 24 23 17 16 19 17 13 13 11 12 12 9 7 5 6 7 8 10 10 9 10 9 5 3 2 2 6 6 5 3 1 3 4 5 4
8 10 10 8 9 18 18 22 18 19 21 13 19 29 23 23 18 17 18 16 16 14 14 14 12 12 10 8 7 8 9 10 11 12 11 10 8 7 6 4 3 3 3 3 2 3 5 5 5
13 7 13 13 18 20 24 22 20 20 17 19 32 27 26 24 24 22 21 18 18 16 16 15 15 14 14 11 10 10 10 9 10 10 8 9 8 7 7 5 5 3 2 1 1 1 1 1 4
8 10 18 23 27 21 24 25 16 17 15 17 23 35 32 34 22 20 21 23 20 20 19 18 16 15 14 13 12 12 12 12 10 10 9 6 6 6 5 5 5 5 4 4 3 2 2 4 5
15 23 21 27 27 23 25 12 17 17 16 15 16 18 34 32 29 28 28 28 22 22 21 21 19 18 15 14 14 14 13 12 11 10 6 4 7 5 9 11 4 5 5 5 4 5 7 7 6
23 25 29 27 29 28 20 15 17 13 17 16 16 19 20 36 35 27 24 31 25 23 22 22 20 19 17 16 15 15 14 13 12 12 9 7 8 7 7 5 4 4 6 4 4 5 8 9 8
19 22 23 28 27 29 33 21 10 13 15 8 6 10 13 14 33 33 33 28 28 29 24 23 22 21 20 19 17 16 14 13 12 12 9 8 9 8 10 9 9 10 8 7 8 8 9 11 12
Wind_Direction
62 64 150 60 41 39 61 35 77 91 83 95 81 93 30 160 138 166 149 151 275 214 171 153 184 215 195 192 162 172 175 165 164 152 153 155 152 146 142 143 138 128 120 116 114 111 115 112 105
70 35 55 132 14 63 72 139 59 62 91 58 103 98 89 75 142 105 97 61 106 98 102 129 151 182 178 189 210 171 148 157 150 151 154 157 151 138 139 138 121 116 118 119 117 111 101 114 105
114 106 135 108 46 53 90 79 17 32 73 50 74 70 77 90 126 139 106 126 138 135 78 98 120 141 163 167 163 147 162 148 143 148 149 146 139 136 131 124 122 122 122 120 117 112 101 102 106
101 127 99 73 40 53 71 65 36 352 14 64 46 60 60 112 106 101 108 79 122 71 79 84 121 115 134 194 156 144 142 142 147 145 148 145 138 133 129 126 128 126 122 121 119 115 106 112 105
182 130 91 85 64 27 49 63 44 59 353 43 70 42 64 73 85 122 161 117 119 124 141 127 124 122 132 145 135 133 146 150 155 148 147 140 139 130 126 129 129 123 125 123 117 110 111 111 103
318 150 100 81 63 39 38 64 38 1 357 33 70 57 54 89 120 101 124 112 125 136 139 127 133 128 134 135 136 146 148 157 151 144 155 158 144 138 137 137 133 122 112 135 114 109 114 108 104
3 156 129 107 22 42 36 32 57 33 13 17 67 82 36 28 61 128 127 103 169 158 146 140 141 139 147 140 138 143 144 148 153 159 165 155 145 136 136 136 129 120 105 126 110 109 109 104 104
135 121 124 136 97 31 34 11 12 21 1 40 27 63 75 66 155 136 159 133 176 165 140 138 138 137 137 138 141 146 150 162 163 160 152 141 140 136 138 134 131 120 114 112 113 111 103 107 113
192 172 180 170 180 101 43 27 11 21 46 350 71 45 50 23 73 133 140 161 154 140 140 138 133 135 134 135 137 136 152 156 152 145 156 149 140 138 137 130 128 119 128 115 115 115 115 118 117
354 217 174 189 135 136 107 29 353 18 25 29 32 53 78 27 87 122 118 138 133 129 147 161 134 134 135 139 144 154 166 149 132 135 136 142 142 144 140 132 126 112 120 125 122 122 120 118 114
334 53 151 323 184 123 75 10 25 360 59 23 71 47 68 68 122 129 117 127 93 124 85 141 124 127 142 157 161 170 175 149 128 129 168 150 142 145 137 135 129 121 113 125 130 126 128 119 112
205 276 163 77 93 269 133 197 43 359 21 39 43 57 64 69 93 110 110 106 106 87 107 106 103 137 125 169 169 170 170 141 129 138 151 140 147 142 138 135 137 142 134 133 133 140 130 119 115
333 357 46 89 271 220 80 32 115 83 357 65 31 71 71 55 100 113 112 113 105 121 102 106 131 105 100 161 150 161 157 130 125 137 148 146 146 152 140 140 143 142 143 143 141 138 124 124 126
268 166 313 354 339 340 25 314 302 38 88 103 339 80 87 94 103 108 100 102 100 111 115 119 143 108 108 131 137 150 142 129 125 122 146 135 138 146 143 145 147 144 149 144 137 138 135 137 141
258 273 51 319 32 107 233 255 277 111 279 153 248 111 106 105 100 99 113 111 118 121 118 134 131 104 90 104 144 149 136 135 147 136 139 155 152 158 143 149 150 147 154 151 150 145 143 140 148
223 85 17 313 308 337 225 241 235 253 192 173 184 160 129 139 133 112 105 105 104 108 117 111 119 109 105 111 121 135 130 146 148 143 150 158 164 160 147 148 153 155 159 155 161 154 147 159 170
208 246 257 295 212 321 296 247 224 232 178 182 164 169 171 155 127 132 126 106 111 116 116 115 111 113 102 95 107 111 149 156 151 145 148 161 154 155 162 162 159 160 164 166 172 166 156 172 183
227 258 263 279 245 182 134 236 237 241 255 263 172 187 180 186 160 142 154 129 130 132 122 119 121 105 96 109 112 102 147 157 152 145 150 150 151 149 153 155 178 170 169 178 185 183 142 141 350
277 273 266 277 107 32 344 23 295 295 278 238 197 196 178 188 166 161 157 184 191 145 143 130 119 108 111 112 104 101 118 145 150 158 158 152 161 168 179 122 175 193 167 194 203 187 179 114 43
270 277 267 258 302 352 304 296 305 302 223 242 216 194 189 181 175 166 152 173 192 163 162 142 127 116 113 115 118 120 120 138 152 164 157 153 168 140 112 134 139 176 176 208 203 187 146 78 12
253 273 287 282 278 296 296 273 301 277 249 237 235 221 189 191 184 175 156 167 184 170 174 164 145 134 115 117 113 127 142 129 142 155 162 163 171 170 144 74 134 196 189 225 227 212 121 104 38
239 271 282 278 286 281 281 246 294 249 251 253 235 226 211 181 192 190 177 165 169 170 180 182 161 151 138 138 140 137 142 157 149 160 173 186 195 175 172 137 159 131 175 181 234 20 24 47 298
216 252 254 271 272 274 259 264 272 303 276 260 228 230 236 195 200 182 189 175 172 181 182 191 184 171 171 163 142 133 142 145 163 166 189 197 195 202 180 173 167 179 166 168 187 11 334 23 8
224 236 259 283 270 258 271 262 261 284 320 253 218 198 211 212 214 197 199 173 191 181 197 200 186 185 191 189 154 146 149 164 174 168 173 194 185 185 231 196 155 148 131 115 42 355 8 9 360
276 259 260 241 264 259 261 261 268 284 285 227 212 210 208 215 209 209 198 183 202 196 202 206 206 188 192 190 182 174 184 166 183 185 182 184 176 188 211 198 197 140 134 128 99 33 14 346 340
265 218 248 251 243 259 247 262 257 254 277 285 221 209 204 219 215 221 199 190 203 209 214 211 212 205 200 205 198 194 203 197 200 201 201 195 183 188 200 229 236 180 169 156 98 79 300 291 291
243 202 258 270 260 261 274 250 270 259 275 262 221 215 207 223 222 214 223 215 200 206 218 224 220 215 206 209 210 213 209 219 211 224 230 208 224 245 255 256 264 260 235 247 243 245 257 284 307
272 243 236 251 258 268 270 266 274 276 260 227 229 219 216 203 209 219 223 214 209 205 209 226 222 219 216 205 212 217 217 218 222 226 224 226 229 256 214 281 249 271 294 299 305 315 312 298 286
266 271 259 246 253 266 237 279 286 289 268 212 210 220 216 228 211 219 222 206 212 213 205 220 226 225 220 215 216 223 221 222 223 231 227 238 241 272 264 245 250 282 261 271 302 309 310 306 301
282 284 270 261 262 263 244 245 324 216 189 252 232 204 228 235 209 221 232 221 235 223 211 216 225 225 225 222 212 220 222 226 227 229 234 238 249 245 254 256 260 251 264 282 298 303 300 293 291